Terug naar catalogus

STARLINK-11230

ActiefCommunicatieVLEO
NORAD 61053·PAYLOAD·🇺🇸 United States

Gelanceerd Sep 13, 2024 vanaf Vandenberg Space Force Base

Loading…

Volgende Passages (komende 24 uur)

TLE

VersSource: CelesTrak SupGP

Epoch: Sep 14, 2026, 22:18 UTC

1 61053C 24164D   26257.92965278 -.00014585  00000+0 -12012-3 0  2572
2 61053  53.1563  98.2334 0001066  89.4208 257.3497 15.69720926    18

Volg STARLINK-11230 in realtime met AllMySat

Download on the App Store